Mobile, AL

10:54 AM CDT on July 24, 2017 (GMT -0500)
Mobile Regional

Weather History for KMOB - June, 2013

Change the Weather History Date:

Friday, June 21, 2013

  Actual Average Record
Temperature  
Mean Temperature 82 °F 81 °F  
Max Temperature 92 °F 90 °F 100 °F (1882)
Min Temperature 71 °F 71 °F 65 °F (1976)
Cooling Degree Days 17 16  
Month to date cooling degree days 331 299  
Year to date cooling degree days 695 744  
Since 1 June cooling degree days 331 299  
Growing Degree Days 31 (Base 50)    
Moisture  
Dew Point 70 °F    
Average Humidity 69    
Maximum Humidity 93    
Minimum Humidity 44    
Precipitation  
Precipitation 0.41 in 0.21 in 3.09 in (1887)
Month to date precipitation 3.81 4.07  
Year to date precipitation 32.26 30.91  
Sea Level Pressure  
Sea Level Pressure 30.09 in    
Wind  
Wind Speed 4 mph (East)    
Max Wind Speed 22 mph    
Max Gust Speed 24 mph    
Visibility 8 miles    
Events Rain    
T = Trace of Precipitation, MM = Missing Value Source: NWS Daily Summary

Daily Weather History Graph

Daily Weather History Graph

Search for Another Location

Airport or City:

Trip Planner

Search our weather history database for the weather conditions in past years. The results will help you decide how hot, cold, wet, or windy it might be!

Date:

Astronomy

Jun. 21, 2013 Rise Set
Actual Time 5:50 AM CDT 7:58 PM CDT
Civil Twilight 5:23 AM CDT 8:26 PM CDT
Nautical Twilight 4:49 AM CDT 9:00 PM CDT
Astronomical Twilight 4:12 AM CDT 9:36 PM CDT
Moon 6:13 PM CDT (6/21) 4:00 AM CDT (6/21)
Length of Visible Light 15h 03m
Length of Day
14h 08m
Waxing Gibbous, 95% of the Moon is Illuminated
Jun 21
Waxing Gibbous
Jun 23
Full
Jun 29
Last Quarter
Jul 8
New
Jul 15
First Quarter

Hourly Weather History & Observations

Time (CDT) Temp. Heat Index Dew Point Humidity Pressure Visibility Wind Dir Wind Speed Gust Speed Precip Events Conditions
12:56 AM 72.0 °F - 68.0 °F 87% 30.08 in 10.0 mi Calm Calm - N/A   Clear
1:56 AM 73.0 °F - 68.0 °F 84% 30.06 in 10.0 mi Calm Calm - N/A   Clear
2:56 AM 72.0 °F - 68.0 °F 87% 30.06 in 10.0 mi Calm Calm - N/A   Clear
3:56 AM 72.0 °F - 69.1 °F 91% 30.06 in 9.0 mi Calm Calm - N/A   Clear
4:56 AM 72.0 °F - 69.1 °F 91% 30.07 in 8.0 mi Calm Calm - N/A   Clear
5:56 AM 72.0 °F - 69.1 °F 91% 30.08 in 9.0 mi NNE 3.5 mph - N/A   Clear
6:56 AM 73.9 °F - 69.1 °F 85% 30.09 in 5.0 mi NE 5.8 mph - N/A   Haze
7:56 AM 78.1 °F - 70.0 °F 76% 30.11 in 10.0 mi ENE 8.1 mph - N/A   Partly Cloudy
8:56 AM 81.0 °F 84.4 °F 70.0 °F 69% 30.12 in 10.0 mi East 9.2 mph - N/A   Partly Cloudy
9:56 AM 84.0 °F 89.0 °F 71.1 °F 65% 30.12 in 10.0 mi East 6.9 mph - N/A   Partly Cloudy
10:56 AM 87.1 °F 93.6 °F 72.0 °F 61% 30.13 in 10.0 mi East 5.8 mph - N/A   Scattered Clouds
11:56 AM 87.1 °F 92.0 °F 70.0 °F 57% 30.13 in 10.0 mi East 3.5 mph - N/A   Mostly Cloudy
12:56 PM 88.0 °F 92.9 °F 70.0 °F 55% 30.12 in 10.0 mi NE 8.1 mph - N/A   Mostly Cloudy
1:56 PM 89.1 °F 94.1 °F 70.0 °F 53% 30.11 in 10.0 mi East 8.1 mph - N/A   Mostly Cloudy
2:56 PM 91.0 °F 94.3 °F 66.9 °F 45% 30.08 in 10.0 mi Variable 4.6 mph - N/A   Partly Cloudy
3:56 PM 86.0 °F 93.0 °F 73.0 °F 65% 30.07 in 10.0 mi SW 12.7 mph - N/A   Mostly Cloudy
4:28 PM 78.8 °F - 71.6 °F 78% 30.10 in 1.5 mi SE 13.8 mph - 0.00 in Rain Heavy Rain
4:32 PM 77.0 °F - 71.6 °F 83% 30.10 in 0.8 mi ESE 21.9 mph - 0.13 in Rain Heavy Rain
4:45 PM 75.2 °F - 71.6 °F 89% 30.10 in 2.0 mi ENE 5.8 mph - 0.38 in Rain Light Rain
4:53 PM 75.2 °F - 71.6 °F 89% 30.10 in 5.0 mi SSE 5.8 mph - 0.41 in Rain Rain
4:56 PM 75.0 °F - 71.1 °F 87% 30.09 in 6.0 mi SSW 8.1 mph - 0.41 in Rain Light Rain
5:56 PM 75.9 °F - 73.0 °F 91% 30.09 in 10.0 mi WSW 3.5 mph - 0.00 in   Scattered Clouds
6:56 PM 77.0 °F - 73.0 °F 88% 30.09 in 10.0 mi West 4.6 mph - N/A   Partly Cloudy
7:56 PM 75.0 °F - 71.1 °F 87% 30.08 in 10.0 mi Calm Calm - N/A   Scattered Clouds
8:56 PM 73.9 °F - 71.1 °F 91% 30.09 in 10.0 mi NW 3.5 mph - N/A   Partly Cloudy
9:56 PM 73.9 °F - 71.1 °F 91% 30.10 in 10.0 mi Calm Calm - N/A   Scattered Clouds
10:56 PM 75.0 °F - 71.1 °F 87% 30.11 in 10.0 mi NE 5.8 mph - N/A   Clear
11:56 PM 73.9 °F - 70.0 °F 87% 30.10 in 10.0 mi Calm Calm - N/A   Clear